User: anonymous   Login
Location: Cypress Hills Dark-Sky Preserve - CHICO
(49.6176°N, 110.2634°W)
Time: 23:47:29
(UTC-06:00)
Language:

SPOT 5 - Orbit

View from above orbital plane
View from above orbital plane
View from above satellite
View from above satellite

Ground track
Ground track

The orbit data is extracted from the following two-line orbital elements,

1 27421U 02021A   16178.73081402  .00000002  00000-0  12452-4 0  9999
2 27421  98.4556 234.6280 0135062 336.5150  22.9910 14.51804117734098
Epoch (UTC): 26 June 2016 17:32:22
Eccentricity: 0.0135062
inclination: 98.4556°
perigee height: 624 km
apogee height: 815 km
right ascension of ascending node: 234.6280°
argument of perigee: 336.5150°
revolutions per day: 14.51804117
mean anomaly at epoch: 22.9910°
orbit number at epoch: 73409

The dashed part of the orbit path shows where the satellite is in the earth's shadow,  

DLR